GLOBALSTAR M069 1 31573U 07020C 26121.48565841 -.00000057 00000+0 32924-3 0 9996 2 31573 52.0057 24.3077 0002478 55.3197 116.0908 12.23470159873089 GLOBALSTAR M072 1 31574U 07020D 26121.68668177 -.00000065 00000+0 26714-3 0 9994 2 31574 51.9926 224.0433 0001437 197.8847 311.0216 11.91657464869439 GLOBALSTAR M066 1 32265U 07048C 26121.63223260 -.00000069 00000+0 21583-3 0 9990 2 32265 51.9574 191.5595 0004435 301.5939 224.5089 12.30387833854490 GLOBALSTAR M079 1 37188U 10054A 26121.75337288 -.00000100 00000+0 21440-4 0 9998 2 37188 52.0040 250.0215 0000482 143.7445 3.8935 12.62265186716682 GLOBALSTAR M074 1 37189U 10054B 26121.78043490 -.00000102 00000+0 85100-5 0 9997 2 37189 52.0016 249.2117 0000584 109.5771 40.9028 12.62267636717297 GLOBALSTAR M076 1 37190U 10054C 26121.80807851 -.00000099 00000+0 26301-4 0 9993 2 37190 52.0029 249.3252 0000353 105.5390 51.5547 12.62272426717018 GLOBALSTAR M077 1 37191U 10054D 26121.91331253 -.00000090 00000+0 -21422-3 0 9994 2 37191 51.9970 296.7466 0003309 91.5070 59.6366 11.67547354715732 GLOBALSTAR M075 1 37192U 10054E 26121.78974362 -.00000097 00000+0 38590-4 0 9995 2 37192 51.9952 291.4630 0000798 107.0986 265.8254 12.62266301716088 GLOBALSTAR M073 1 37193U 10054F 26121.98312539 -.00000077 00000+0 14698-3 0 9990 2 37193 52.0056 204.9386 0000242 169.6100 1.4907 12.62266581718091 GLOBALSTAR M083 1 37739U 11033A 26121.83850694 -.00000087 00000+0 95682-4 0 9991 2 37739 51.9834 153.6699 0000133 229.4518 305.7426 12.62262847687095 GLOBALSTAR M088 1 37740U 11033B 26121.57399900 -.00000115 00000+0 -64890-4 0 9992 2 37740 52.0224 60.7890 0000561 58.5943 111.9694 12.62263178682605 GLOBALSTAR M091 1 37741U 11033C 26121.88302334 -.00000095 00000+0 51515-4 0 9998 2 37741 52.0023 22.8824 0000615 86.1862 350.7645 12.62262914683434 GLOBALSTAR M085 1 37742U 11033D 26121.85575578 -.00000091 00000+0 70912-4 0 9996 2 37742 52.0143 334.2188 0000720 106.5370 266.6232 12.62262963683946 GLOBALSTAR M081 1 37743U 11033E 26121.99105308 -.00000079 00000+0 13620-3 0 9990 2 37743 51.9977 336.2965 0000696 86.8826 60.7029 12.62263874684101 GLOBALSTAR M089 1 37744U 11033F 26121.95619237 -.00000099 00000+0 25685-4 0 9995 2 37744 51.9936 290.5704 0000826 84.6329 84.9424 12.62266119684943 GLOBALSTAR M084 1 38040U 11080A 26121.81148483 -.00000075 00000+0 16137-3 0 9997 2 38040 51.9987 158.4669 0000255 44.0497 127.5529 12.62266820662904 GLOBALSTAR M080 1 38041U 11080B 26121.86204175 -.00000065 00000+0 21393-3 0 9993 2 38041 52.0042 160.0158 0000602 150.2517 20.9836 12.62268786663035 GLOBALSTAR M082 1 38042U 11080C 26121.71903383 -.00000103 00000+0 58714-5 0 9997 2 38042 52.0053 115.9445 0000264 141.2484 29.9210 12.62269466663720 GLOBALSTAR M092 1 38043U 11080D 26121.68971594 -.00000074 00000+0 16449-3 0 9997 2 38043 52.0076 206.4303 0000417 125.9134 31.2948 12.62266813662171 GLOBALSTAR M090 1 38044U 11080E 26121.95120831 -.00000110 00000+0 -34877-4 0 9996 2 38044 52.0104 109.1784 0000132 39.6265 346.1970 12.62268397663876 GLOBALSTAR M086 1 38045U 11080F 26121.97582477 -.00000098 00000+0 31736-4 0 9992 2 38045 51.9877 109.1089 0000949 322.8836 72.7016 12.62285689663828 GLOBALSTAR M097 1 39072U 13005A 26121.76043355 -.00000105 00000+0 -80857-5 0 9995 2 39072 52.0073 24.6582 0000505 78.5860 281.5064 12.62260044611046 GLOBALSTAR M093 1 39073U 13005B 26121.97171672 -.00000089 00000+0 80887-4 0 9995 2 39073 52.0131 17.3469 0000385 82.3505 277.7406 12.62264747611029 GLOBALSTAR M094 1 39074U 13005C 26121.73420530 -.00000104 00000+0 -28166-5 0 9992 2 39074 51.9961 292.2354 0000620 121.0462 239.0466 12.62267959612601 GLOBALSTAR M096 1 39075U 13005D 26121.90590596 -.00000084 00000+0 11280-3 0 9995 2 39075 52.0093 340.4772 0000679 100.3155 259.7788 12.62264545611549 GLOBALSTAR M078 1 39076U 13005E 26121.56207023 -.00000124 00000+0 -11400-3 0 9998 2 39076 51.9878 65.5918 0000990 133.5478 226.5471 12.62265958610121 GLOBALSTAR M095 1 39077U 13005F 26121.19296481 -.00000120 00000+0 -89227-4 0 9993 2 39077 52.0088 64.2546 0000339 120.6119 239.4782 12.62267337609934 GLOBALSTAR M087 1 52888U 22064A 26121.68151620 -.00000069 00000+0 19390-3 0 9996 2 52888 51.9989 204.0381 0000476 167.5332 192.5547 12.62268531185267